Zurück zum Katalog

GLOBALSTAR M043

AktivKommunikationMEO
NORAD 25874·PAYLOAD·🇺🇸 United States

Gestartet Jul 25, 1999 von Cape Canaveral Space Force Station

Loading…

Nächste Überflüge (nächste 24 Stunden)

TLE

AktuellSource: Space-Track

Epoche: Sep 14, 2026, 15:09 UTC

1 25874U 99041C   26257.63182649 -.00000049  00000-0  56500-3 0  9993
2 25874  51.9375 102.9411 0014029   8.3945  25.1973 11.25700898174056

Verfolge GLOBALSTAR M043 in Echtzeit mit AllMySat

Download on the App Store